STARLINK-37198, 68386

Orbit data source: Space-Track

STARLINK-37198, 68386 is a payload satellite owned by SpaceX/Seattle (US) in SSO that was launched on Thu, 26 Mar 2026 UTC via an FALCON 9 launch vehicle from the Air Force Western Test Range (AFWTR). Payload-class satellites include a variety of spacecraft equipped with specific instruments for various scientific and technological missions. These include communications satellites like Starlink; space stations such as the ISS; scientific satellites like the Hubble; Earth observation satellites from companies like Planet Labs, Umbra, and HawkEye 360; GPS; miniature CubeSats for education and research; and military/defense satellites.

Loading next visibility...
Identifier
68386, 2026-063G
Orbit
SSO
Country
Flag of USUS
Related business
Manufacturer
SpaceX/Seattle
Mission
Operational spacecraft
Bus & Motor
STARLINK V2MO, Unknown motor
Mass
575 kg wet, ~530 kg dry
Launch date (UTC)
2026-03-26 (2 weeks ago)
Launch vehicle
FALCON 9
Launch site
Air Force Western Test Range (AFWTR)
Object type
Payload
Rocket body
Debris
Shape & HBR
Unknown shape, 17.7 m
Radar Cross Section
RCS unknown

Expand to show TLE details & history
Last TLE update: 8 hours ago

TLE from 8 hours ago
0 STARLINK-37198
1 68386U 26063G   26102.25469275 -.00639178  00000-0 -38124-2 0  9995
2 68386  97.2836 243.6647 0003550  47.7551 312.4017 15.79461723  2928
Epoch: 2026-04-12T06:06Z
TLE epoch observation values (Epoch: 2026-04-12T06:06:45.453Z)
Latitude
-0.00005°
Longitude
-48.48696°
Altitude
333.533 km
Speed
7.709 km/s
True Right ascension
16h 14m 39s
True Declination
0° 00' 00"
Sunlit
Object was in full shadow at epoch
Visualization orbit readout
Latitude
Unknown
Longitude
Unknown
Altitude
Unknown
Speed
Unknown
Apparent Right ascension
Unknown
Apparent Declination
Unknown
Sunlit
N/A
Visualization observer readout
Local Sidereal Time
20:17:36
Azimuth
Unknown
Elevation
Unknown
Doppler factor
Unknown
Orbital elements
Apogee altitude
331.227 km
Perigee altitude
326.465 km
Semi-major axis
6,706.983 km
Eccentricity
0.00036
Inclination
97.2836°
RAAN
243.6647°
Arg. of periapsis
47.7551°
True anomaly
312.37165°
Mean anomaly
312.4017°
Eccentric anomaly
312.38668°
Mean motion
3.95141 °/min
Orbital period
91.11 mins
BSTAR
-0.0038124
Loading maneuver chart data...
Computing Atmospheric mass density...
Loading historical data...
Loading historical data...
Loading historical data...
Loading historical data...
Loading historical data...
Loading historical data...
Loading historical data...

Documentation

Showing up to 5 results
|